User: anonymous   Login
Location: Chiroubles
(46.1812°N, 4.6660°E)
Time: 15:39:30
(UTC+00:00)
Language:

Transit 4A - Orbit

View from above orbital plane
View from above orbital plane
View from above satellite
View from above satellite

Ground track
Ground track

The orbit data is extracted from the following two-line orbital elements,

1   116U 61015A   21132.23503648 -.00000068  00000-0  65368-5 0  9999
2   116  66.8079 124.4542 0070993 142.7526 217.8508 13.91788920 38069
Epoch (UTC): 12 May 2021 05:38:27
Eccentricity: 0.0070993
inclination: 66.8079°
perigee height: 870 km
apogee height: 974 km
right ascension of ascending node: 124.4542°
argument of perigee: 142.7526°
revolutions per day: 13.91788920
mean anomaly at epoch: 217.8508°
orbit number at epoch: 3806

The dashed part of the orbit path shows where the satellite is in the earth's shadow,  

DLR